Le nostre stazioni meteo in Italia

Pubblicità
Il mio iltempo24.it
Capo Palinuro, Italia (16310): Temperatura & dewpoint: 19.05.2019 08:00:00 - 25.05.2019 08:00:00 (CEST)Capo Palinuro, Italia (16310): velocità del vento: 19.05.2019 08:00:00 - 25.05.2019 08:00:00 (CEST)Capo Palinuro, Italia (16310): direzione del vento: 19.05.2019 08:00:00 - 25.05.2019 08:00:00 (CEST)Capo Palinuro, Italia (16310): reduced air pressure: 19.05.2019 08:00:00 - 25.05.2019 08:00:00 (CEST)Capo Palinuro, Italia (16310): visibility: 19.05.2019 08:00:00 - 25.05.2019 08:00:00 (CEST)Capo Palinuro, Italia (16310): ore di luce: 19.05.2019 08:00:00 - 25.05.2019 08:00:00 (CEST)
Data & Tempo tt [°C] td [°C] ff [km/h] ff [kn] dd ppp [hPa] vv [km] sd [min]
25.05.2019 08:00:00 - - - - - - - -
25.05.2019 07:00:00 17,0 15,0 8 4 E 1014,1 20 0
25.05.2019 06:00:00 16,8 14,8 9 5 ENE 1014,1 20 -
25.05.2019 05:00:00 17,0 13,9 8 4 E 1014,1 20 -
25.05.2019 04:00:00 17,0 15,2 9 5 E 1014,1 20 -
25.05.2019 03:00:00 17,0 15,2 8 4 ENE 1014,6 20 -
25.05.2019 02:00:00 17,0 14,8 9 5 E 1014,8 20 -
25.05.2019 01:00:00 17,0 14,8 8 4 E 1014,8 20 -
25.05.2019 00:00:00 17,0 15,2 8 4 ENE 1014,8 20 -
24.05.2019 23:00:00 17,2 15,2 11 6 E 1014,6 20 -
24.05.2019 22:00:00 17,0 15,4 8 4 O 1014,5 20 -
24.05.2019 21:00:00 18,0 16,5 9 5 SSO 1014,4 20 -
24.05.2019 20:00:00 19,0 17,1 8 4 SSO 1014,4 20 12
24.05.2019 19:00:00 19,6 16,8 8 4 SO 1014,6 20 60
24.05.2019 18:00:00 20,0 16,7 8 4 SO 1015,0 20 60
24.05.2019 17:00:00 20,0 16,4 13 7 SSO 1015,1 20 60
24.05.2019 16:00:00 20,0 16,0 9 5 SO 1015,1 20 60
24.05.2019 15:00:00 20,2 16,0 11 6 SSO 1015,2 20 60
24.05.2019 14:00:00 20,8 16,2 13 7 SSO 1015,3 20 60
24.05.2019 13:00:00 20,0 16,4 11 6 SSO 1015,4 20 60
24.05.2019 12:00:00 20,2 17,0 13 7 SSO 1015,4 20 60
24.05.2019 11:00:00 20,4 16,4 11 6 S 1015,3 20 60
24.05.2019 10:00:00 18,2 15,6 8 4 NNO 1015,4 20 60
24.05.2019 09:00:00 18,2 15,5 8 4 NNO 1015,4 20 60
24.05.2019 08:00:00 17,6 15,2 13 7 SSO 1015,0 20 60
24.05.2019 07:00:00 16,0 13,5 11 6 N 1015,2 20 60
24.05.2019 06:00:00 15,0 13,0 9 5 NO 1015,3 20 -
24.05.2019 05:00:00 15,0 12,9 8 4 ONO 1015,3 20 -
24.05.2019 04:00:00 15,6 14,0 8 4 NNO 1015,5 20 -
24.05.2019 03:00:00 15,6 14,0 8 4 ONO 1015,4 20 -
24.05.2019 02:00:00 16,0 14,4 11 6 N 1015,8 20 -
24.05.2019 01:00:00 16,0 14,4 9 5 NNO 1015,7 20 -
24.05.2019 00:00:00 17,0 15,4 8 4 NO 1015,7 20 -
23.05.2019 23:00:00 17,0 15,4 5 3 NNO 1015,7 20 -
23.05.2019 22:00:00 17,0 14,5 11 6 NNO 1015,6 20 -
23.05.2019 21:00:00 17,0 14,5 16 9 NNO 1015,6 20 -
23.05.2019 20:00:00 17,6 15,0 21 11 NNO 1015,6 20 -
23.05.2019 19:00:00 18,2 14,7 16 9 OSO 1015,7 20 48
23.05.2019 18:00:00 19,0 14,5 16 9 S 1015,7 20 18
23.05.2019 17:00:00 19,0 15,5 22 12 OSO 1015,6 20 30
23.05.2019 16:00:00 19,0 15,5 18 10 S 1015,7 10 12
23.05.2019 15:00:00 19,4 16,3 13 7 SSE 1016,1 20 30
23.05.2019 14:00:00 19,2 16,1 18 10 S 1016,3 20 30
23.05.2019 13:00:00 19,4 16,3 16 9 SSE 1016,2 20 24
23.05.2019 12:00:00 19,0 16,2 21 11 SSE 1016,2 20 18
23.05.2019 11:00:00 18,8 16,2 18 10 SSE 1016,2 20 24
23.05.2019 10:00:00 18,0 14,9 0 0 N 1015,8 20 60
23.05.2019 09:00:00 17,0 14,5 4 2 N 1015,8 20 60
23.05.2019 08:00:00 16,2 13,7 9 5 SE 1015,9 20 60
23.05.2019 07:00:00 15,8 13,3 11 6 SSE 1015,9 20 12
23.05.2019 06:00:00 15,0 13,0 0 0 N 1016,0 20 0
23.05.2019 05:00:00 15,8 13,8 9 5 SE 1015,9 20 -
23.05.2019 04:00:00 16,0 13,5 0 0 N 1015,9 20 -
23.05.2019 03:00:00 16,0 13,3 9 5 SSE 1015,9 20 -
23.05.2019 02:00:00 16,0 13,1 11 6 SSE 1015,9 20 -
23.05.2019 01:00:00 16,0 12,6 11 6 SSE 1015,9 20 -
23.05.2019 00:00:00 16,2 13,9 0 0 N 1015,9 20 -
22.05.2019 23:00:00 16,6 14,1 9 5 SE 1015,9 20 -
22.05.2019 22:00:00 17,0 15,4 0 0 N 1015,8 20 -
22.05.2019 21:00:00 17,0 15,4 0 0 N 1015,8 20 -
22.05.2019 20:00:00 18,0 16,0 9 5 SE 1015,8 20 12
22.05.2019 19:00:00 19,0 16,0 0 0 N 1016,2 20 60
22.05.2019 18:00:00 19,2 15,3 0 0 N 1016,5 20 60
22.05.2019 17:00:00 20,0 15,7 0 0 N 1016,6 20 60
22.05.2019 16:00:00 19,8 14,8 11 6 SE 1016,6 20 60
22.05.2019 15:00:00 19,8 15,5 11 6 SE 1016,6 10 60
22.05.2019 14:00:00 20,0 15,4 15 8 SSE 1016,6 10 60
22.05.2019 13:00:00 19,8 16,7 15 8 SSE 1016,6 10 60
22.05.2019 12:00:00 19,0 15,5 0 0 N 1016,7 10 60
22.05.2019 11:00:00 18,8 16,2 0 0 N 1016,7 18 60
22.05.2019 10:00:00 18,0 15,4 11 6 E 1016,8 10 60
22.05.2019 09:00:00 18,0 14,7 11 6 SSE 1016,8 10 60
22.05.2019 08:00:00 16,8 14,3 9 5 SE 1016,9 10 60
22.05.2019 07:00:00 16,0 13,8 9 5 OSO 1016,9 10 42
22.05.2019 06:00:00 16,0 13,8 9 5 N 1016,9 10 -
22.05.2019 05:00:00 16,0 13,8 9 5 NNE 1016,9 10 -
22.05.2019 04:00:00 16,4 14,2 9 5 SE 1016,9 10 -
22.05.2019 03:00:00 16,6 14,6 11 6 OSO 1016,9 10 -
22.05.2019 02:00:00 16,6 14,6 9 5 ESE 1017,2 10 -
22.05.2019 01:00:00 16,8 14,8 11 6 NE 1017,2 10 -
22.05.2019 00:00:00 16,8 14,1 9 5 ESE 1017,1 10 -
21.05.2019 23:00:00 16,8 14,8 8 4 NNE 1016,9 10 -
21.05.2019 22:00:00 17,0 15,4 9 5 NE 1016,7 10 -
21.05.2019 21:00:00 17,0 15,4 9 5 NNE 1016,7 10 -
21.05.2019 20:00:00 17,6 16,1 9 5 O 1016,7 10 42
21.05.2019 19:00:00 18,2 15,6 13 7 S 1016,6 18 60
21.05.2019 18:00:00 19,0 16,4 11 6 ESE 1016,4 10 30
21.05.2019 17:00:00 18,8 16,4 13 7 SSO 1016,4 10 60
21.05.2019 16:00:00 18,6 16,2 15 8 SSO 1016,4 10 48
21.05.2019 15:00:00 19,4 16,4 13 7 SSE 1016,3 10 60
21.05.2019 14:00:00 18,0 15,1 16 9 SSE 1016,2 10 48
21.05.2019 13:00:00 19,0 16,0 15 8 SE 1016,1 10 48
21.05.2019 12:00:00 18,2 15,3 11 6 ONO 1015,3 10 30
21.05.2019 11:00:00 18,0 14,9 11 6 SE 1014,8 10 6
21.05.2019 10:00:00 17,0 14,7 8 4 SE 1014,4 10 0
21.05.2019 09:00:00 17,4 15,0 0 0 N 1013,7 10 -
21.05.2019 08:00:00 16,8 14,4 0 0 N 1013,7 10 0
21.05.2019 07:00:00 16,2 13,9 0 0 N 1013,8 20 -
21.05.2019 06:00:00 16,8 14,8 0 0 N 1013,6 20 -
21.05.2019 05:00:00 16,8 15,0 11 6 SO 1013,8 20 -
21.05.2019 04:00:00 17,0 15,5 8 4 O 1013,8 20 -
21.05.2019 03:00:00 17,0 15,2 0 0 N 1013,8 20 -
21.05.2019 02:00:00 16,8 15,0 0 0 N 1013,8 20 -
21.05.2019 01:00:00 16,2 14,9 0 0 N 1013,9 20 -
21.05.2019 00:00:00 17,0 15,4 0 0 N 1013,8 20 -
20.05.2019 23:00:00 17,0 14,5 5 3 OSO 1013,3 20 -
20.05.2019 22:00:00 17,0 14,3 5 3 S 1012,9 20 -
20.05.2019 21:00:00 17,2 14,8 5 3 S 1012,7 20 12
20.05.2019 20:00:00 17,4 14,3 9 5 SO 1012,7 20 12
20.05.2019 19:00:00 17,8 14,3 8 4 SO 1012,7 20 60
20.05.2019 18:00:00 18,2 16,0 5 3 SO 1012,7 20 36
20.05.2019 17:00:00 18,2 15,6 11 6 S 1012,7 20 36
20.05.2019 16:00:00 18,0 16,3 11 6 SSE 1012,5 20 18
20.05.2019 15:00:00 18,4 16,4 13 7 S 1012,3 20 42
20.05.2019 14:00:00 18,8 16,0 11 6 S 1011,8 20 60
20.05.2019 13:00:00 18,6 15,8 11 6 S 1011,6 20 60
20.05.2019 12:00:00 18,4 15,9 13 7 S 1010,5 20 60
20.05.2019 11:00:00 17,8 15,1 18 10 S 1010,0 20 30
20.05.2019 10:00:00 17,0 14,7 15 8 S 1009,9 20 0
20.05.2019 09:00:00 16,2 14,0 8 4 O 1009,7 20 0
20.05.2019 08:00:00 16,2 14,2 9 5 NO 1009,7 10 0
20.05.2019 07:00:00 16,0 14,0 8 4 NO 1009,7 20 0
20.05.2019 06:00:00 15,8 13,7 9 5 ONO 1009,7 20 0
20.05.2019 05:00:00 15,4 13,3 11 6 NNO 1009,8 20 -
20.05.2019 04:00:00 15,4 13,6 9 5 N 1009,8 20 -
20.05.2019 03:00:00 16,0 15,0 9 5 NNE 1009,7 20 -
20.05.2019 02:00:00 16,0 14,5 8 4 NNE 1009,7 20 -
20.05.2019 01:00:00 15,8 14,3 8 4 ONO 1009,7 20 -
20.05.2019 00:00:00 16,0 14,7 8 4 ONO 1009,1 20 -
19.05.2019 23:00:00 16,4 15,1 9 5 NO 1008,9 20 -
19.05.2019 22:00:00 16,0 14,4 9 5 O 1008,7 20 -
19.05.2019 21:00:00 16,8 15,2 9 5 NO 1008,4 20 -
19.05.2019 20:00:00 17,2 16,1 13 7 ONO 1008,1 20 0
19.05.2019 19:00:00 18,0 15,8 11 6 ONO 1007,7 20 60
19.05.2019 18:00:00 18,6 16,2 13 7 NO 1007,5 20 60
19.05.2019 17:00:00 19,0 16,4 15 8 ONO 1007,3 20 60
19.05.2019 16:00:00 19,4 16,8 11 6 ONO 1006,8 15 60
19.05.2019 15:00:00 19,2 16,1 15 8 O 1006,6 20 54
19.05.2019 14:00:00 19,0 15,5 13 7 O 1006,4 15 48
19.05.2019 13:00:00 19,0 15,9 9 5 NO 1006,1 10 60
19.05.2019 12:00:00 18,0 14,9 11 6 NO 1005,8 10 60
19.05.2019 11:00:00 17,8 15,4 5 3 NO 1005,8 10 60
19.05.2019 10:00:00 17,0 14,3 11 6 NNO 1005,6 15 48
19.05.2019 09:00:00 17,0 15,0 16 9 NNO 1005,7 15 36
19.05.2019 08:00:00 16,2 14,2 4 2 ONO 1005,7 10 0

tt = Temperatura
td = dewpoint
ff = velocità del vento
dd = direzione del vento
ppp = reduced air pressure
vv = visibility
sd = ore di luce

Stazioni seguenti

WeatherPro
AMSI
MeteoEarth